Theta_e
345 346 347 347 347 347 347 343 342 341 342 339 339 339 341 342 342 342 344 343 342 342 339 337 339 341 340 339 339 338 338 337 338 338 337 337 338 336 333 332 332 333 334 333 334 334 334 333 332 332 332 332 332 331 331 330 328 329 328 328 328 328 328 328 328 328 328 328 328 329 328 328 329 329 328 329 328 328 328 327 327 328 328 328 328
345 346 345 346 348 349 348 344 341 341 342 340 339 338 339 340 340 340 338 340 339 340 339 337 337 341 341 340 338 338 338 337 336 336 337 338 338 333 332 333 334 335 336 335 334 334 333 334 334 334 333 333 332 331 331 330 329 329 329 328 327 327 327 328 328 328 327 328 328 327 328 328 328 328 328 328 328 328 328 328 328 327 327 328 328
345 339 345 346 347 348 346 346 341 340 342 341 342 340 339 339 339 339 339 338 338 339 338 338 339 338 340 339 338 339 338 340 339 338 336 336 337 336 336 334 336 339 340 338 336 336 335 335 334 335 333 332 331 331 332 331 331 330 329 328 328 328 328 327 327 328 328 328 327 327 328 327 327 328 328 328 328 328 328 328 329 328 328 329 329
347 343 345 345 345 345 345 345 341 340 342 341 341 341 339 339 340 341 340 340 340 338 338 335 336 336 338 338 339 338 337 340 339 338 337 337 335 336 337 335 340 341 340 340 339 338 336 335 335 335 334 333 333 333 332 332 331 330 330 329 329 328 328 328 328 327 327 327 327 327 327 327 327 327 326 326 326 327 327 328 328 328 329 329 329
347 346 345 346 346 345 346 347 346 343 342 343 342 341 340 339 342 343 342 341 340 340 339 338 337 338 340 338 338 338 340 340 341 341 338 337 336 335 338 338 341 341 340 339 338 337 338 336 338 335 335 334 334 334 334 332 331 331 331 331 330 329 328 328 328 328 328 327 327 327 327 327 327 326 326 326 326 326 327 327 327 327 328 328 329
345 345 345 346 346 344 345 346 346 347 343 343 341 341 339 338 339 340 338 338 338 340 338 337 336 338 339 339 340 340 341 341 340 340 338 337 337 338 337 340 339 340 340 338 338 338 336 334 334 334 336 335 335 335 335 334 334 332 332 332 330 328 329 330 329 327 327 327 327 327 327 327 327 326 326 326 325 326 326 327 327 327 327 328 328
346 345 344 345 344 344 345 346 347 348 345 341 341 340 339 337 337 336 338 337 336 337 337 337 336 336 337 340 340 340 341 340 341 340 337 338 337 338 340 340 340 341 340 340 339 338 337 336 335 334 335 335 336 335 335 335 336 335 332 331 330 331 330 328 328 328 328 328 328 328 328 327 327 327 326 326 326 326 326 326 327 327 328 328 329
346 345 344 341 343 343 344 346 347 346 345 344 342 340 340 339 339 338 335 336 337 337 338 338 338 337 338 339 339 340 340 340 340 340 339 338 337 338 339 340 341 340 339 339 341 340 337 336 336 335 335 335 336 336 336 336 337 336 333 331 332 331 330 330 329 329 329 329 329 328 328 328 328 327 327 326 326 326 326 326 328 328 329 330 330
348 347 345 342 343 343 345 345 347 345 345 345 343 341 341 340 339 339 339 338 338 339 339 340 339 337 337 339 339 340 341 340 340 339 340 339 339 337 340 340 340 337 339 339 339 338 338 337 336 336 336 335 336 335 336 335 335 337 335 333 332 332 332 331 330 330 330 329 329 329 329 328 328 328 327 327 327 326 326 327 328 330 330 330 330
348 347 346 344 344 344 344 345 345 345 344 344 342 341 342 342 340 340 340 339 337 338 338 339 339 338 337 337 341 341 338 338 339 339 337 338 338 338 339 341 341 341 340 341 341 341 341 337 335 337 337 336 336 336 335 334 334 335 335 334 334 333 332 332 332 332 332 331 331 330 329 329 329 328 328 328 328 327 326 327 331 330 330 329 329
346 345 344 344 343 343 342 343 343 343 343 342 341 341 341 341 339 340 341 340 338 339 338 338 337 337 337 339 341 340 338 338 339 339 338 339 337 338 340 340 340 339 341 341 340 341 339 339 338 337 338 336 337 335 335 335 335 335 334 335 335 334 334 333 334 333 332 332 332 331 330 330 329 329 329 329 328 327 327 330 330 330 329 329 329
344 342 342 340 341 341 343 343 342 342 340 339 340 339 340 341 339 338 339 339 340 339 339 336 335 336 336 339 340 337 338 338 337 339 340 339 339 339 338 338 338 339 340 339 339 338 338 336 337 338 339 337 337 336 336 335 334 335 334 333 335 334 334 334 335 334 333 333 332 332 331 331 331 330 330 330 328 328 328 330 330 329 328 328 327
341 341 342 341 341 340 341 340 340 340 339 338 340 341 342 340 339 336 336 336 337 339 338 336 333 332 335 335 335 336 336 335 333 337 338 337 339 337 336 336 337 338 339 339 336 337 338 339 338 337 337 338 339 335 337 335 335 335 334 335 333 334 334 333 334 333 333 333 332 332 332 332 331 331 331 330 329 330 330 330 329 327 326 326 326
340 341 341 340 340 341 341 340 339 339 340 338 339 339 336 337 337 333 334 335 334 336 335 335 329 326 324 326 328 332 335 335 334 336 338 337 338 338 338 336 335 339 339 336 337 336 338 338 339 339 339 340 340 340 337 339 338 335 335 335 335 335 335 334 333 333 333 333 333 332 332 332 332 331 331 331 331 331 330 329 327 326 326 326 326
340 341 340 340 340 340 340 340 339 339 336 335 338 333 333 332 335 333 331 335 335 337 337 337 330 329 328 324 321 322 328 332 334 333 336 338 339 337 336 335 334 337 337 336 336 338 337 337 339 340 341 341 340 340 338 336 338 336 336 336 335 336 336 333 334 333 333 333 333 333 332 332 332 332 332 331 331 330 330 327 326 326 325 325 324
340 340 340 339 340 338 338 337 337 339 336 337 336 335 331 331 333 334 334 329 331 332 338 338 337 329 322 323 323 324 320 324 326 330 336 336 338 336 336 333 334 334 336 335 334 337 338 336 339 341 341 340 340 339 338 337 337 337 337 336 334 336 334 334 333 333 333 333 333 332 331 332 332 332 332 331 330 329 327 326 326 325 324 324 324
341 341 339 339 339 339 339 337 337 337 334 335 334 332 333 333 332 332 333 331 328 331 333 337 333 337 329 324 318 316 318 322 325 327 333 333 335 335 334 334 332 334 335 334 335 337 336 334 339 340 339 338 337 335 334 335 337 336 337 336 335 334 334 333 333 334 334 333 331 331 329 330 332 332 331 330 329 328 327 327 326 325 324 323 323
339 340 339 339 339 339 339 337 337 336 334 332 334 331 332 332 333 332 330 332 331 329 329 331 333 331 332 330 327 322 321 327 325 319 330 333 333 332 332 334 335 334 334 333 333 334 334 334 338 338 336 335 334 333 333 333 333 333 336 336 334 334 330 332 333 334 334 332 331 329 328 329 331 331 331 330 329 328 328 327 325 324 323 322 322
338 338 339 339 339 339 338 338 337 336 335 333 332 334 332 333 335 331 331 331 330 327 327 329 332 331 332 330 331 330 334 328 322 325 318 326 330 331 330 331 332 332 331 331 332 334 334 335 334 333 335 335 334 333 333 333 334 335 332 330 331 331 329 329 333 334 333 331 330 331 330 330 330 331 331 330 328 328 327 325 324 322 321 321 321
338 338 339 339 339 339 338 337 336 336 335 333 333 336 335 336 334 333 333 333 332 329 328 328 326 326 331 330 331 330 333 333 329 326 323 319 320 329 329 330 332 332 331 330 331 334 333 333 332 331 334 333 333 331 333 330 333 335 335 325 328 329 329 329 327 331 331 330 331 331 330 330 332 331 330 329 327 327 325 324 322 321 320 320 320
338 338 339 339 339 339 337 335 337 336 334 333 334 333 333 333 329 330 333 333 333 334 330 331 330 328 328 329 329 330 329 331 333 332 325 322 320 320 322 330 331 331 331 331 332 334 333 332 333 333 334 334 333 332 331 332 331 334 331 324 326 326 326 325 321 320 322 329 330 330 329 329 329 330 329 328 327 325 324 322 320 320 320 319 319
338 338 338 339 339 339 337 336 336 336 335 335 334 333 333 332 332 334 332 331 333 331 330 332 332 332 332 329 326 329 330 327 329 326 327 325 319 321 325 324 320 325 333 331 332 333 334 334 334 333 334 334 333 330 332 331 331 330 327 321 323 323 323 322 318 318 320 325 329 328 329 328 327 327 326 326 326 325 323 321 320 319 319 319 318
337 338 337 338 338 337 338 337 336 337 336 337 337 337 335 334 336 333 331 333 335 334 332 332 332 333 330 330 331 330 326 324 327 328 327 321 324 323 325 325 325 326 327 331 331 333 334 334 333 333 333 334 331 330 331 330 329 328 322 321 321 323 322 318 316 316 322 325 327 327 328 328 328 327 326 326 325 323 321 320 320 320 320 319 318
337 336 336 338 337 336 337 337 336 337 337 338 337 337 338 338 336 334 334 336 338 337 335 334 329 331 333 335 333 332 330 328 331 329 329 327 325 323 322 325 325 325 327 331 333 332 332 332 332 332 332 332 330 331 331 328 328 323 327 321 321 322 321 319 315 316 316 318 321 323 327 328 327 327 327 326 324 321 321 321 321 320 320 319 318
335 336 338 337 336 336 336 336 336 336 337 336 337 339 340 338 337 335 336 335 336 335 335 336 335 330 333 333 335 334 330 331 331 330 331 329 327 324 323 326 325 327 328 329 329 331 332 332 331 331 330 328 327 329 329 328 328 325 325 322 319 319 319 321 320 315 313 313 316 322 327 326 326 326 325 322 321 322 321 321 322 319 319 320 319
335 335 336 337 336 336 337 337 338 338 339 339 338 338 338 337 337 336 334 333 334 335 336 337 336 336 336 332 332 333 333 334 333 332 331 326 327 326 323 324 326 323 327 328 328 325 329 331 330 331 328 327 328 330 329 328 330 323 322 326 323 317 316 319 322 319 316 315 317 319 323 325 325 324 322 321 322 324 323 318 316 313 311 311 313
334 336 337 339 338 337 337 338 338 339 339 339 337 336 335 336 337 337 333 332 331 334 333 334 333 334 338 336 335 335 336 332 331 329 330 330 329 327 326 322 323 323 321 327 326 325 324 328 329 328 327 329 330 331 328 328 327 322 320 330 329 315 316 316 320 320 318 317 317 316 318 319 321 322 323 323 321 317 317 318 315 313 313 313 317
335 336 338 339 337 337 337 337 338 338 338 338 336 335 337 337 336 337 335 333 330 330 333 332 333 336 337 337 333 330 332 332 330 337 336 334 329 329 328 324 319 317 321 322 323 322 327 324 326 328 328 329 329 330 326 324 330 320 320 331 330 324 315 315 319 322 319 317 316 314 314 315 316 316 315 317 318 317 318 318 317 315 312 314 318
333 335 336 338 337 336 335 336 337 337 338 335 336 338 337 336 336 335 333 332 332 331 333 330 334 336 335 335 331 330 333 331 333 337 335 335 332 331 331 327 325 321 319 320 321 321 324 326 323 326 329 329 328 328 326 324 325 325 325 330 331 328 317 314 314 316 316 315 317 315 313 313 313 313 317 319 319 319 319 316 314 313 312 315 317
333 335 335 334 336 336 335 335 335 338 338 336 335 337 337 335 334 333 334 333 332 335 335 335 336 337 334 331 330 331 333 333 335 338 337 336 335 332 331 330 330 322 323 318 320 324 323 327 327 324 327 327 327 327 323 323 323 322 323 326 329 330 315 313 313 311 311 313 312 310 309 310 313 316 318 318 318 316 314 313 312 311 312 315 318
335 334 334 334 334 335 334 335 336 337 337 336 337 337 336 335 335 334 335 335 335 335 336 335 336 333 331 331 333 332 333 335 334 336 337 337 335 333 330 331 330 327 327 322 321 323 328 324 325 327 325 327 326 325 321 323 323 319 325 326 326 320 315 317 312 311 312 311 309 309 310 310 311 312 315 316 317 316 314 314 313 312 314 316 315
334 333 333 333 334 333 333 333 335 336 336 337 336 335 337 337 336 335 336 335 334 335 335 336 334 333 332 332 333 333 334 333 330 332 333 335 335 332 330 331 333 331 331 327 322 321 328 328 326 327 326 327 324 323 323 323 322 318 323 323 328 318 324 324 312 311 311 310 309 310 314 311 308 311 313 314 315 316 315 315 313 313 314 312 311
332 332 333 332 332 333 332 333 334 335 337 336 335 334 334 334 334 334 335 335 333 333 333 333 333 334 333 332 333 334 336 333 329 329 331 334 335 333 332 331 331 330 330 328 323 321 326 331 328 325 327 326 322 323 320 322 324 320 318 322 326 324 319 319 325 312 310 309 308 308 308 308 307 312 311 311 313 313 313 311 310 310 308 308 308
332 331 333 334 333 332 332 331 333 334 334 335 334 334 333 333 333 334 335 334 333 332 332 332 333 333 334 333 332 334 335 333 330 331 332 334 332 331 330 331 329 331 332 329 328 323 322 325 327 327 326 326 319 322 321 322 323 320 316 320 322 320 316 318 321 324 309 310 308 307 307 306 306 307 308 305 306 307 308 307 306 306 306 305 302
331 332 332 333 332 332 329 329 331 329 333 334 335 335 334 334 333 333 335 335 334 332 331 332 331 332 333 333 333 334 336 335 334 333 335 333 331 327 329 330 329 330 331 330 327 325 324 322 325 325 326 323 320 320 321 324 324 320 316 317 319 317 316 318 319 322 309 309 307 306 306 306 305 305 305 305 305 304 304 304 304 304 303 303 301
330 329 330 332 333 334 333 333 332 332 334 334 334 334 334 334 333 333 333 334 334 333 333 332 331 331 332 333 333 334 335 333 333 333 333 331 331 331 330 329 331 331 332 332 330 327 323 320 322 322 322 321 320 322 320 322 323 321 318 317 317 316 315 316 316 317 315 308 307 307 306 306 305 305 304 304 304 303 303 303 303 303 302 301 302
328 329 328 330 330 333 331 327 327 330 334 334 334 334 334 335 334 334 333 333 334 333 333 333 332 332 332 332 333 333 334 332 334 332 332 332 331 332 332 329 329 331 330 328 328 328 325 321 320 321 321 321 319 321 320 319 321 320 318 317 316 315 316 315 314 313 313 307 308 306 306 305 305 304 304 304 304 303 303 302 302 302 301 301 301
326 329 327 329 329 329 328 329 329 330 334 335 334 334 334 334 334 334 334 334 333 333 333 333 333 333 333 333 333 333 333 332 333 334 333 332 331 331 330 328 328 330 329 329 327 325 324 322 320 317 321 316 317 319 320 319 317 315 316 316 316 316 316 316 315 314 318 317 318 316 308 306 304 304 305 304 303 303 302 302 302 301 301 301 300
326 328 329 328 330 330 331 331 331 333 334 335 335 335 335 334 333 332 333 333 333 334 334 333 334 334 334 334 334 334 333 333 333 333 333 333 332 332 331 332 331 327 328 326 324 324 325 322 320 319 319 319 320 317 317 318 318 317 316 315 314 315 316 317 316 316 316 316 312 307 309 309 309 311 306 303 302 303 303 302 302 301 301 300 299
327 327 328 328 330 331 330 330 327 330 332 333 335 335 334 334 334 334 334 334 332 333 335 335 335 335 335 335 334 334 334 334 334 333 333 332 333 333 333 334 332 330 326 326 325 321 322 321 320 319 317 316 317 318 316 317 316 316 316 315 313 314 315 317 318 317 317 316 316 314 309 308 306 307 303 303 303 302 303 302 302 302 301 300 299
327 328 327 329 328 328 331 330 328 328 327 330 334 335 334 332 332 331 334 333 333 332 331 332 333 333 334 334 333 333 334 332 324 322 324 326 334 332 334 332 331 330 325 325 318 321 322 320 319 320 317 317 317 317 316 315 314 314 317 317 316 315 314 315 316 318 317 316 316 314 314 313 310 311 311 312 312 308 306 303 307 304 301 300 300
325 327 327 326 327 327 330 330 329 330 331 332 328 318 320 332 332 332 332 333 332 332 331 331 331 331 332 333 333 329 325 323 318 314 311 314 319 329 336 332 328 328 328 324 322 322 320 319 319 318 317 316 316 318 318 318 317 317 316 317 315 314 315 315 318 319 318 318 317 315 315 316 317 316 316 315 317 318 319 317 316 314 306 300 300
318 324 327 325 326 327 330 330 330 330 332 332 309 308 309 311 328 334 333 331 333 332 331 330 329 330 332 332 333 328 326 322 324 307 308 306 307 308 307 306 310 328 327 324 322 321 319 320 322 321 318 317 317 319 319 318 320 319 317 319 316 315 313 313 312 318 321 319 316 316 316 320 320 317 317 318 320 323 324 322 304 306 302 301 300
311 313 314 316 319 322 327 327 328 328 330 298 300 303 304 304 309 333 334 333 332 331 331 330 330 330 331 332 333 333 331 331 331 327 316 306 305 304 298 298 296 294 299 322 326 323 325 321 320 322 321 319 318 319 318 319 320 321 320 320 318 314 314 313 312 314 321 322 319 317 316 322 322 320 320 320 324 328 322 310 304 302 301 300 301
308 308 309 311 312 315 317 320 323 325 321 294 293 293 296 297 298 309 332 333 332 332 333 332 332 331 331 331 333 334 331 325 328 330 329 321 299 295 296 297 296 295 295 296 301 328 329 327 324 323 323 321 319 320 322 321 324 323 322 318 319 317 316 314 314 314 319 325 321 318 316 320 323 321 321 327 328 327 323 306 301 301 300 301 300
305 305 306 307 308 309 311 313 318 321 315 296 293 292 293 293 295 299 329 332 332 332 333 333 333 333 332 331 331 331 332 330 330 331 330 328 323 319 321 325 321 308 298 298 299 296 309 328 331 327 328 326 324 326 326 327 325 322 321 319 321 320 318 316 325 323 322 320 320 319 317 321 324 324 322 325 326 323 323 308 301 303 302 301 302
304 304 303 304 305 306 306 306 310 316 310 293 292 292 293 292 293 295 323 330 331 332 333 334 334 334 333 333 333 331 331 329 330 328 330 327 326 326 325 323 320 319 320 320 322 323 324 325 326 325 322 323 325 325 325 324 324 324 324 322 322 322 324 325 324 324 322 323 324 321 314 319 324 321 320 321 321 318 318 303 303 302 302 300 300
304 304 304 304 304 304 304 304 305 306 307 294 292 292 292 293 292 308 321 328 329 330 330 333 333 334 333 333 333 332 331 330 316 308 316 328 327 324 320 317 314 311 307 297 294 299 317 321 319 318 313 306 303 315 313 322 327 327 324 326 325 324 320 316 316 318 319 318 320 320 319 318 320 317 317 317 316 315 314 316 301 302 301 301 300
301 302 302 303 303 303 302 301 301 303 303 297 292 291 291 292 295 313 320 326 327 328 329 329 329 332 333 332 333 332 331 331 307 301 303 310 324 320 316 314 312 311 308 305 295 293 292 292 292 292 293 293 294 294 294 294 307 318 321 318 317 318 316 314 317 317 316 315 315 316 315 312 316 314 313 311 312 311 311 312 320 303 303 302 301
301 300 301 301 302 303 302 301 300 301 301 297 292 291 292 291 296 312 320 325 325 326 326 327 328 328 317 303 312 330 330 325 296 297 298 313 322 319 317 314 312 310 308 307 306 301 294 294 294 294 294 295 296 296 295 297 298 308 322 317 320 319 320 319 315 315 316 314 310 313 309 309 313 312 310 310 310 310 312 314 315 313 302 302 302
303 302 301 300 300 301 301 301 300 300 300 299 293 291 291 292 300 310 316 322 323 323 323 322 323 321 317 308 297 302 322 308 294 296 297 308 323 319 316 314 311 309 308 309 308 307 308 309 310 309 307 304 308 307 304 298 299 305 313 313 313 312 309 309 310 310 309 309 309 311 306 307 308 308 307 304 302 307 311 313 313 312 312 313 313
Wind_Speed
5 5 4 3 2 4 3 4 4 5 5 5 6 6 6 5 6 6 5 4 5 5 4 5 4 4 4 4 3 4 3 3 4 4 3 4 4 7 5 5 6 5 6 5 7 7 8 7 7 7 7 7 7 7 8 8 8 8 8 8 9 9 9 10 10 9 9 10 11 11 11 11 11 12 12 12 12 12 13 14 14 14 15 15 16
4 4 5 4 4 3 3 4 5 5 6 6 6 6 7 6 6 5 5 4 4 5 4 5 5 4 4 5 5 4 2 4 3 3 3 3 5 6 4 4 1 6 2 7 7 7 8 8 7 7 6 7 7 7 8 8 8 7 8 8 8 9 9 9 9 9 9 9 9 10 11 11 11 11 11 11 11 12 13 13 13 13 14 14 15
4 5 5 5 4 3 4 4 5 5 5 6 6 7 7 6 7 6 5 5 5 4 4 4 4 5 5 6 5 4 2 2 3 3 4 4 5 6 6 1 3 3 1 7 7 7 7 7 7 8 7 7 7 7 7 8 8 8 8 7 8 8 9 9 9 9 9 9 9 9 10 11 11 11 11 11 10 11 12 13 13 13 14 14 14
5 7 5 4 4 4 5 5 5 5 6 6 7 6 6 7 7 6 6 5 5 4 3 4 4 5 5 5 4 4 4 3 3 3 3 4 4 5 6 6 5 7 11 9 7 5 5 6 6 7 8 7 7 7 7 7 7 8 8 8 9 8 8 9 9 9 9 8 8 9 9 9 10 10 10 9 10 11 11 12 13 13 13 14 14
5 5 5 5 5 5 5 4 4 4 5 6 7 7 7 7 8 7 6 5 6 5 4 4 5 5 4 5 4 4 4 4 3 3 3 4 4 5 5 6 8 11 11 8 7 4 5 3 5 3 9 7 8 8 7 8 7 7 8 8 9 9 8 8 8 8 8 9 8 8 8 9 9 8 9 10 10 10 12 11 12 12 13 13 13
6 5 5 5 5 5 5 5 5 4 5 6 7 7 7 7 8 8 7 6 7 7 5 4 5 4 4 5 4 4 4 4 4 3 3 4 4 4 5 5 6 6 8 11 8 6 6 3 2 3 1 8 8 8 7 8 9 8 9 8 9 9 9 8 8 8 8 8 8 8 8 8 8 8 8 8 9 9 10 11 11 12 12 12 12
5 5 6 6 5 5 6 6 5 5 5 6 7 7 7 8 7 8 7 7 7 7 7 6 6 6 5 4 4 4 3 4 4 4 4 3 4 4 4 4 4 5 6 5 8 8 7 6 6 5 5 3 7 8 8 8 10 11 9 10 9 10 10 8 8 7 8 8 8 8 8 8 7 7 7 8 9 9 10 11 11 11 10 11 12
6 6 5 5 6 6 6 6 6 5 6 6 7 8 7 8 8 8 8 8 8 8 7 7 7 6 5 5 4 4 4 4 4 4 4 4 5 5 4 4 4 4 3 5 5 6 9 8 7 10 8 8 7 8 8 8 9 11 11 11 10 10 10 10 9 8 8 8 8 8 8 8 7 7 7 7 8 9 10 10 10 11 11 11 11
6 7 6 5 6 5 5 6 6 6 6 6 7 7 8 7 8 9 8 8 8 8 7 6 5 6 6 6 5 5 3 2 4 3 3 4 4 5 4 4 4 3 5 3 4 7 7 7 6 7 9 9 9 8 7 8 9 11 12 12 11 11 11 11 10 9 9 9 9 8 8 7 8 7 7 7 8 8 8 9 10 12 11 12 12
6 5 5 5 6 6 7 6 6 6 6 6 7 6 7 7 7 7 7 7 8 8 7 7 6 6 6 6 5 4 3 4 4 3 4 5 4 5 5 3 3 4 3 3 2 2 5 7 8 7 7 8 8 8 8 7 3 6 12 12 13 12 12 11 11 9 9 9 9 9 7 7 7 7 7 6 7 8 8 9 12 11 12 13 13
5 5 5 5 6 6 6 7 7 7 6 7 6 7 7 8 9 8 6 7 7 7 6 6 6 5 6 6 5 5 5 5 4 5 4 5 5 4 3 4 4 5 3 3 3 3 3 4 7 6 7 8 10 9 7 8 11 9 9 13 13 14 13 12 11 10 10 10 9 9 8 7 7 7 7 7 7 8 8 11 10 11 12 12 13
7 8 8 8 8 7 7 8 7 6 7 7 8 8 9 9 8 8 7 8 7 6 6 6 5 6 5 6 5 5 5 5 6 5 5 5 5 5 5 4 4 4 4 3 3 2 2 2 2 3 5 8 7 10 11 12 10 11 8 7 13 14 13 12 11 11 10 9 9 9 8 7 7 7 8 8 8 7 8 10 10 11 11 12 12
8 9 9 9 8 7 7 7 7 6 6 6 7 5 4 6 6 5 7 8 7 6 7 6 6 6 5 6 5 3 5 5 6 7 6 5 5 5 4 4 5 4 4 4 3 3 2 2 3 3 4 6 7 10 9 8 9 10 12 11 10 12 11 9 9 9 9 9 8 9 9 8 8 7 8 9 8 7 8 10 11 11 11 11 11
7 9 9 10 9 7 8 8 8 8 6 7 7 4 4 4 4 6 6 7 7 7 7 8 7 7 6 5 4 4 4 7 7 9 7 6 6 6 5 5 5 4 3 4 4 4 4 4 3 2 2 3 5 6 6 7 7 10 14 12 14 12 11 10 9 7 8 8 7 8 8 8 9 9 9 9 9 9 10 11 10 11 11 11 11
10 10 9 10 10 8 7 7 7 6 6 8 6 7 5 4 6 7 6 6 6 7 9 10 7 7 8 7 5 6 6 6 6 8 7 6 5 5 5 5 6 5 5 4 4 3 3 3 3 3 3 3 4 5 6 6 7 9 10 12 13 13 13 11 12 9 7 7 8 8 8 9 11 11 10 10 10 10 11 10 10 10 10 11 11
11 11 11 10 10 10 9 9 8 6 7 7 8 6 7 8 6 5 7 7 6 8 8 10 7 8 8 9 5 6 9 9 6 8 8 8 7 6 5 6 5 7 5 6 4 4 3 4 4 3 3 4 4 5 5 6 9 9 10 11 13 12 12 12 11 9 9 10 10 10 10 10 11 12 12 11 10 10 10 10 10 11 10 10 10
10 9 9 9 10 10 9 9 9 7 7 7 7 7 8 9 8 8 8 6 7 6 7 5 5 5 1 2 2 4 8 7 10 7 8 9 9 7 6 6 8 7 6 5 5 4 4 5 4 4 4 4 5 5 5 7 7 7 9 10 11 12 11 9 10 11 11 11 9 9 7 8 12 12 12 10 10 10 10 10 10 10 10 10 10
9 9 10 9 8 9 10 10 9 9 9 9 9 8 10 10 10 6 7 5 5 6 6 7 6 5 3 3 4 5 6 7 9 7 9 8 7 9 9 8 8 7 6 6 7 5 5 5 5 4 4 4 4 4 4 4 4 5 5 9 11 13 10 10 11 12 11 10 10 9 9 8 11 13 12 11 11 11 11 10 10 10 10 10 10
10 9 10 10 9 9 9 9 8 9 9 10 10 9 10 9 7 8 8 7 6 6 8 7 6 7 6 6 7 6 3 6 8 5 8 8 7 8 9 8 4 7 8 8 7 5 4 4 5 5 5 4 4 4 4 6 10 9 11 11 10 11 12 12 13 12 12 11 11 11 11 11 11 12 12 12 11 10 10 10 10 9 9 9 9
9 10 11 10 9 8 8 9 8 8 7 9 11 8 7 7 9 9 8 8 9 8 7 8 10 8 6 6 8 8 5 3 6 7 7 9 9 6 7 8 9 7 7 7 8 6 5 4 6 6 5 6 5 5 5 6 7 8 8 8 9 9 10 10 9 10 11 11 11 11 12 12 12 12 13 12 10 10 9 9 9 9 9 9 9
10 11 11 9 8 8 8 9 9 8 8 10 10 10 9 8 10 11 9 8 8 7 8 8 8 9 7 10 8 7 8 6 6 4 5 6 7 9 10 7 5 7 7 6 6 7 6 6 6 6 6 5 4 5 6 6 6 7 9 8 8 9 9 10 10 8 8 10 11 11 12 12 13 13 12 11 9 9 9 9 9 9 8 8 8
8 10 9 9 9 9 9 10 9 9 9 9 11 11 10 11 10 8 9 10 9 9 10 8 8 7 6 7 9 8 5 7 11 8 5 4 7 11 10 10 9 8 5 6 8 8 7 6 7 7 6 6 5 5 5 5 6 7 9 9 9 9 9 9 8 7 6 7 9 11 11 11 11 11 11 10 9 9 8 8 8 8 8 9 8
6 8 9 9 9 8 9 10 9 8 8 9 9 9 9 10 9 8 11 11 8 10 9 6 4 6 8 9 7 6 7 9 9 9 9 12 9 8 9 10 10 7 10 10 8 9 8 7 7 6 6 6 5 5 5 5 4 11 12 9 9 9 9 9 8 8 8 7 8 10 11 11 11 11 10 9 9 9 8 8 8 8 8 8 8
7 6 9 9 9 9 9 9 9 9 8 7 8 8 8 8 8 9 9 9 7 7 8 9 10 10 10 7 8 7 5 8 2 5 7 3 4 7 10 10 10 10 10 9 10 8 9 8 8 7 7 6 5 4 5 5 9 15 9 9 9 10 9 9 9 9 8 8 7 8 10 11 11 10 10 9 8 8 8 8 8 8 8 8 8
8 9 10 11 9 9 10 10 10 9 8 8 7 6 6 6 6 7 7 8 8 9 9 10 10 8 7 7 7 6 7 8 6 7 3 3 7 6 10 10 8 6 8 10 8 8 8 8 8 7 8 7 7 6 6 6 7 9 9 9 10 10 10 9 9 8 8 7 7 7 9 10 10 9 9 8 8 8 8 8 7 5 5 5 6
8 9 8 10 10 10 10 11 10 9 9 9 7 7 6 5 6 7 8 7 7 9 9 9 9 11 8 8 6 8 9 5 6 6 5 6 7 4 5 7 10 7 7 9 9 9 8 8 9 7 9 8 7 6 6 6 9 11 7 7 9 10 10 10 9 8 7 7 6 6 6 8 8 9 9 8 8 6 7 8 7 6 6 5 5
7 8 9 10 10 10 10 10 10 9 9 8 7 7 7 6 6 7 5 7 8 7 8 9 9 11 10 8 6 7 5 4 8 9 8 8 5 8 8 8 6 9 8 9 10 12 9 9 9 9 8 7 7 7 7 6 10 13 6 7 8 10 10 10 9 9 8 7 6 4 4 7 6 7 7 5 6 8 8 7 6 5 5 4 2
7 8 9 9 9 10 10 10 10 10 9 9 9 8 8 8 7 8 9 6 7 10 6 9 11 11 10 8 6 7 5 5 8 7 3 1 6 7 8 9 11 9 9 10 10 10 11 9 9 8 8 8 8 7 7 7 9 12 8 6 7 8 10 10 10 9 8 7 6 4 3 5 4 7 7 7 7 7 6 6 6 4 4 3 2
7 7 8 8 8 9 9 10 10 9 9 10 10 9 9 9 8 9 10 11 9 13 11 12 9 9 8 8 7 9 10 11 9 6 5 4 5 7 8 9 8 9 7 8 10 8 11 11 9 9 9 9 8 8 8 8 12 12 9 6 7 8 10 10 10 10 9 8 7 6 5 5 6 7 8 7 7 6 5 5 6 5 5 4 3
8 7 7 8 9 10 10 9 10 10 10 9 10 9 9 9 9 9 8 9 11 10 9 9 9 8 7 7 8 8 7 7 7 7 6 6 4 4 6 8 8 9 9 9 8 8 9 10 8 9 10 10 8 8 8 7 16 12 9 7 6 7 15 11 11 10 10 9 8 7 7 6 6 7 8 7 6 6 6 6 6 6 6 6 6
7 8 8 9 9 9 10 11 11 11 10 10 9 9 9 7 8 7 8 9 9 9 8 9 8 7 8 10 9 7 6 4 4 5 6 6 5 4 7 8 4 7 7 7 4 6 7 9 8 8 11 11 9 9 8 7 11 10 8 7 7 15 16 10 11 10 10 10 8 7 7 7 7 7 8 8 7 7 6 7 7 7 7 7 6
8 8 8 9 10 10 10 11 12 12 12 11 11 10 9 9 9 9 9 10 10 10 9 9 7 8 10 10 9 8 7 5 7 8 7 7 6 6 6 7 6 7 3 2 5 4 6 7 9 8 12 10 11 10 9 7 10 10 7 7 9 14 9 8 12 11 10 9 9 8 8 7 7 7 7 7 8 7 7 8 8 8 8 8 7
9 9 9 10 11 10 11 10 12 12 12 11 10 10 10 9 8 9 10 11 11 9 8 9 10 9 10 10 9 10 9 8 7 8 8 9 8 7 6 6 10 7 7 4 6 9 7 5 7 8 9 11 10 10 10 8 9 8 8 7 9 7 8 7 10 13 12 11 10 9 9 8 8 8 8 8 8 8 8 9 9 9 9 8 8
9 10 9 9 10 11 10 10 14 12 13 11 11 10 9 9 9 8 9 11 11 10 9 10 10 8 8 10 10 9 10 9 11 12 10 8 8 7 8 7 11 9 8 7 8 8 7 6 7 8 9 10 9 10 10 10 9 9 10 7 7 8 8 7 8 10 16 13 12 11 9 9 9 9 9 9 9 9 9 9 9 9 9 9 10
7 7 9 10 11 10 11 12 10 9 12 11 11 11 10 10 10 10 9 10 10 10 10 10 10 9 9 10 10 9 8 9 9 9 7 8 7 9 10 12 11 9 10 10 10 8 9 8 7 9 9 10 9 10 11 9 9 10 10 10 8 8 7 8 7 7 18 15 15 12 11 11 10 9 9 9 8 9 9 10 11 11 11 11 11
7 8 11 10 9 11 11 8 8 12 12 11 10 10 10 10 10 10 10 10 10 10 10 10 9 9 9 9 10 10 9 9 9 10 9 10 10 9 16 14 10 8 5 4 5 5 7 7 9 9 9 9 9 8 9 9 9 9 9 9 9 8 8 8 8 6 14 18 16 14 13 12 11 10 10 10 10 10 11 12 12 12 12 11 11
7 8 8 10 9 8 7 9 10 11 11 11 11 10 9 9 9 9 9 9 9 10 9 9 9 9 9 9 9 10 9 9 10 10 10 12 10 10 9 10 9 9 7 6 5 6 6 7 8 8 9 9 9 8 9 9 9 9 9 9 9 9 9 9 8 6 14 17 16 15 13 13 12 12 12 12 13 13 13 13 13 12 13 12 12
9 7 8 6 11 9 13 12 12 14 12 11 10 10 10 10 9 9 9 8 8 9 9 9 9 9 9 10 9 10 10 10 9 10 11 12 11 11 11 11 11 11 8 6 6 10 9 6 7 8 7 9 9 9 9 9 9 9 9 9 9 8 8 8 8 7 7 7 6 8 9 10 13 14 14 14 15 15 14 14 14 14 13 12 12
8 6 6 9 6 12 11 14 13 11 11 10 10 10 10 9 10 10 9 9 9 8 9 10 9 9 9 10 10 10 10 10 10 10 10 11 10 12 10 11 4 4 9 6 7 9 8 8 7 8 8 8 8 8 9 10 9 9 9 9 9 8 8 8 8 7 7 8 10 11 10 11 13 13 15 17 16 16 15 15 14 14 13 13 13
4 5 6 7 7 7 8 4 4 5 4 7 9 9 9 8 8 9 9 8 9 8 9 9 9 9 9 9 10 10 11 10 10 10 10 10 10 12 10 5 7 5 7 8 3 8 8 8 8 8 8 9 8 8 8 9 9 9 9 9 9 9 9 9 9 8 8 8 8 8 8 7 7 9 10 15 17 17 16 14 14 14 13 12 12
4 5 7 7 6 9 5 5 7 7 11 12 9 9 9 9 9 9 9 9 9 9 8 9 8 9 9 8 8 9 9 6 4 6 5 3 9 10 8 6 3 5 6 7 6 3 6 9 10 8 8 9 9 9 9 9 11 10 9 8 8 8 9 8 9 9 8 8 8 8 9 10 10 11 10 10 11 16 14 15 11 14 14 12 11
3 5 6 8 7 8 7 7 11 10 4 7 5 8 6 8 9 8 8 8 9 8 9 9 9 9 9 8 8 9 4 4 4 3 3 2 2 3 2 3 4 7 5 10 9 6 2 4 5 7 7 7 9 10 10 10 10 9 9 9 9 8 8 8 7 8 9 8 8 8 8 8 8 8 9 8 6 10 6 9 3 5 5 7 5
11 9 6 7 8 9 9 7 5 5 8 5 7 6 5 6 6 8 8 8 8 8 8 8 9 9 9 9 9 9 7 6 6 7 5 3 3 2 4 8 4 4 4 5 8 11 10 9 9 8 7 9 10 9 10 10 9 10 10 9 10 9 9 8 8 7 6 7 7 7 6 6 6 7 7 7 6 4 4 7 9 9 6 5 2
10 10 11 11 11 10 8 8 8 7 2 15 10 4 2 6 8 6 8 8 8 8 9 9 9 8 9 8 8 8 9 11 11 8 5 2 1 5 7 8 7 7 5 7 10 9 9 10 11 11 11 10 9 10 10 10 9 9 10 9 10 10 9 10 9 8 6 5 6 6 6 4 3 5 4 3 2 2 7 9 9 5 5 4 5
9 10 10 10 10 10 10 9 8 8 10 16 17 17 12 10 12 11 7 8 8 8 8 9 9 8 8 8 8 7 7 9 9 9 9 6 7 8 8 9 8 7 6 3 3 4 9 10 10 11 11 10 10 8 9 10 8 9 9 10 9 9 9 9 10 6 6 4 4 4 6 5 3 4 5 3 2 3 5 8 8 8 5 3 3
11 10 9 10 9 10 10 10 8 6 8 14 16 15 13 12 13 10 10 8 8 8 8 9 8 8 8 8 8 7 7 8 10 9 9 9 7 7 6 6 5 6 6 5 2 4 4 6 8 7 3 1 1 3 2 2 6 7 8 8 7 7 7 5 5 7 5 2 3 3 5 5 3 2 2 3 2 2 2 12 10 9 7 6 4
12 11 11 10 9 9 10 10 9 6 8 19 17 16 14 12 12 10 10 10 8 8 8 9 9 8 8 8 8 8 8 9 10 9 9 9 9 9 8 7 6 5 4 2 2 4 5 4 2 4 5 5 5 3 0 1 2 3 3 4 5 4 6 7 5 4 4 3 1 4 5 4 4 3 3 2 2 2 4 9 13 10 10 8 8
9 10 10 10 11 11 11 10 9 8 9 17 18 16 14 12 9 7 10 11 9 8 8 9 8 7 8 8 8 9 9 9 9 8 8 9 10 10 8 7 7 6 7 5 6 9 6 5 5 4 4 4 5 5 6 3 3 3 4 5 5 7 7 6 6 5 4 4 4 2 1 1 2 2 3 3 0 3 2 7 10 13 11 10 9
11 10 10 10 10 11 12 12 11 7 7 12 16 17 16 11 5 6 10 10 9 8 8 8 8 7 4 3 6 8 8 8 12 11 8 10 10 10 9 8 7 7 6 7 12 14 15 16 16 14 12 12 13 14 14 13 9 4 5 5 7 7 7 8 7 6 5 3 4 4 1 2 2 2 2 6 3 3 4 4 9 11 11 10 10
12 12 10 10 10 10 12 12 11 9 9 11 16 15 16 14 8 7 9 10 9 7 6 5 6 5 6 11 10 2 8 7 12 11 11 10 9 10 10 11 10 9 8 7 8 9 14 15 15 14 13 14 15 16 16 17 16 11 3 5 4 4 5 2 6 4 4 3 4 4 2 3 1 3 3 4 4 5 4 1 1 4 11 10 11
11 11 11 11 11 11 11 11 15 13 10 10 16 16 14 14 10 7 7 7 6 5 6 5 4 4 4 8 13 10 2 12 13 12 8 5 8 9 11 10 10 10 9 10 10 11 10 10 9 9 9 9 9 9 10 16 15 12 8 7 5 4 5 4 4 4 4 4 2 3 3 0 1 1 1 4 4 2 1 1 0 3 3 4 3
Wind_Direction
189 198 193 209 197 199 201 197 190 171 174 202 200 198 204 208 201 197 190 169 162 162 169 171 164 170 136 125 112 97 116 106 114 126 119 129 130 120 144 135 157 160 152 143 142 141 138 137 132 136 137 132 132 126 125 124 120 112 114 110 106 108 108 97 94 97 92 86 86 90 88 85 84 81 78 75 77 77 75 73 71 69 67 65 64
203 199 186 194 211 224 220 206 199 181 191 192 200 199 201 205 201 196 188 185 171 169 181 175 179 145 134 121 133 143 147 123 136 123 111 105 95 128 158 162 274 320 331 140 145 145 145 147 149 146 137 122 123 132 130 137 130 125 118 116 115 106 104 106 105 104 105 95 93 95 98 95 90 84 81 79 74 72 75 75 74 72 69 67 65
179 254 213 193 207 225 227 215 210 197 200 195 199 202 201 198 200 191 183 194 180 164 196 177 172 156 142 149 155 142 148 120 117 131 133 131 129 141 141 251 327 302 240 136 151 153 152 147 145 143 135 137 138 147 146 135 135 135 126 120 118 112 112 115 113 104 98 101 102 99 87 87 87 88 89 85 80 73 72 73 71 68 66 65 62
211 206 197 198 201 218 231 228 220 206 205 207 199 204 200 195 198 192 196 194 175 161 180 178 180 180 168 153 143 152 159 144 138 146 146 139 141 147 150 154 121 104 91 92 99 112 149 151 150 147 148 152 160 152 146 144 141 137 137 133 126 122 115 109 116 115 112 112 112 105 105 99 94 89 91 88 84 79 75 72 72 70 66 64 61
203 218 200 205 203 212 230 232 227 221 212 206 213 198 204 194 193 189 187 181 182 158 173 185 187 184 171 152 165 170 162 162 158 160 158 156 161 157 154 158 151 119 109 104 103 110 95 58 24 152 160 165 166 161 154 153 148 143 143 140 130 131 125 119 118 123 123 124 124 113 112 111 105 98 81 82 82 76 70 69 67 68 64 63 61
201 204 216 214 205 211 227 229 232 217 215 202 210 208 206 200 200 200 191 189 184 179 170 177 185 189 175 169 185 171 165 164 169 154 161 170 162 164 158 162 169 163 149 126 126 123 123 119 112 354 57 177 178 173 163 155 156 154 152 147 141 134 135 138 135 136 138 126 127 128 115 115 108 98 93 90 85 82 77 68 72 70 66 65 66
210 202 214 219 205 214 221 228 227 224 220 212 216 213 206 203 199 202 189 196 189 189 189 182 185 191 187 187 186 170 183 175 168 175 174 146 181 157 166 165 169 163 143 146 129 124 127 135 153 207 186 196 218 185 171 166 163 161 157 155 152 147 141 142 145 148 152 151 139 130 125 118 118 110 100 88 84 79 85 83 73 66 66 69 62
229 217 214 237 228 216 216 226 225 226 224 213 216 213 209 206 203 203 193 199 190 186 186 181 188 193 197 200 189 189 189 176 177 194 157 164 180 155 179 170 176 171 163 190 151 123 129 136 160 183 191 205 218 209 176 181 173 161 161 159 155 151 147 151 157 160 161 161 151 137 131 116 114 114 103 99 91 85 81 82 72 72 65 59 58
236 228 228 232 231 230 227 224 225 226 227 226 221 219 204 205 205 208 194 192 185 184 185 184 180 192 195 205 199 197 181 171 192 185 160 191 161 164 176 185 161 148 191 204 156 155 129 132 146 166 189 203 211 207 206 174 188 169 166 162 157 156 156 156 160 167 168 160 156 148 139 134 117 114 114 98 87 84 83 78 74 62 62 65 69
250 248 240 235 238 228 227 225 233 232 228 226 230 226 206 200 196 201 198 197 196 188 186 181 177 185 198 197 201 188 175 198 190 195 195 181 176 171 183 157 175 192 199 197 214 161 152 159 162 171 178 199 202 205 194 196 215 182 169 166 163 160 160 162 168 175 165 161 158 151 148 140 133 121 119 111 102 98 90 87 72 72 76 76 76
251 240 231 232 233 238 234 226 228 232 233 229 223 220 212 202 202 186 194 201 206 184 182 181 179 181 188 191 194 187 193 204 200 201 203 185 175 173 181 171 189 195 195 196 194 180 179 181 181 189 163 174 192 192 205 205 195 185 192 173 173 166 169 171 169 171 164 154 153 153 150 147 143 136 127 120 112 106 99 82 85 87 79 74 75
224 223 225 225 220 225 220 220 225 226 229 230 225 217 206 198 187 178 179 198 204 186 176 178 175 181 179 187 190 193 208 202 211 207 205 186 185 180 181 183 199 186 202 203 191 161 193 189 241 184 152 150 172 178 192 201 192 197 163 183 182 175 176 178 173 170 164 156 151 147 153 152 151 154 141 130 122 119 108 94 97 89 85 81 81
207 220 226 228 225 217 224 221 214 219 217 229 235 229 216 212 177 161 180 191 191 182 178 175 170 170 178 181 175 186 208 217 233 228 202 193 187 185 190 187 201 191 190 206 171 177 192 200 205 200 174 152 165 173 184 192 184 189 169 199 172 197 177 172 181 173 162 158 154 150 154 158 158 157 152 141 139 125 106 109 100 96 92 90 88
212 225 234 235 229 212 215 221 217 222 218 228 215 174 202 220 178 179 202 190 191 184 179 182 185 182 177 182 190 200 210 220 228 215 205 196 194 192 181 194 206 195 198 189 193 180 183 180 194 182 181 162 156 158 168 181 191 186 182 193 177 178 189 181 171 190 165 165 167 162 166 164 157 159 160 154 133 121 118 112 107 102 100 98 96
230 224 226 230 231 226 214 216 212 208 213 221 177 176 189 183 184 191 192 202 190 191 189 197 187 196 195 193 194 202 206 220 216 229 201 202 200 193 180 196 209 202 196 206 189 188 194 155 153 165 169 166 156 155 147 168 150 167 184 187 183 184 185 172 187 186 168 158 152 148 157 167 163 157 158 144 130 129 122 117 112 107 104 105 103
236 231 231 231 228 230 228 218 210 198 200 205 184 178 178 192 190 197 187 187 191 196 204 208 236 184 210 212 190 217 211 205 190 206 199 202 199 198 195 201 236 200 196 208 179 185 184 151 162 163 163 153 149 138 137 121 128 151 167 180 183 185 174 184 170 174 159 142 138 137 142 151 162 159 152 138 133 129 126 121 119 116 111 109 107
251 245 241 237 229 228 224 216 214 198 195 202 186 192 187 183 177 188 194 182 178 195 209 236 254 282 138 173 139 215 237 203 180 188 194 200 204 203 201 196 212 205 202 202 181 179 195 159 151 153 158 153 152 145 135 132 148 145 146 162 174 176 165 159 172 163 150 145 144 143 141 145 148 152 144 136 137 135 132 129 125 121 116 111 110
242 241 238 234 231 229 228 220 210 205 199 208 215 206 192 196 179 169 190 207 171 181 201 218 239 260 193 261 269 251 225 166 167 188 188 212 200 207 197 209 204 199 217 192 197 172 186 151 154 153 159 165 143 133 125 134 152 147 135 122 140 145 152 165 167 156 152 142 139 144 146 143 144 144 141 141 141 139 134 131 125 120 117 112 108
231 235 235 233 227 219 219 223 221 213 200 204 209 196 196 193 159 174 192 192 194 195 201 201 210 236 228 223 259 262 268 188 195 166 187 198 219 202 213 193 197 226 205 200 185 170 183 158 154 162 155 164 144 136 138 92 67 79 76 108 124 138 156 167 163 155 142 145 142 143 141 142 146 145 147 145 142 139 135 129 121 114 114 111 106
224 225 236 238 233 219 211 219 222 218 195 204 207 196 186 180 174 187 192 187 186 191 192 202 198 211 203 209 228 246 277 220 221 187 193 188 197 198 227 208 195 209 213 202 182 167 181 175 173 165 172 159 157 154 120 121 129 122 112 100 121 140 153 168 153 135 146 146 147 141 139 141 147 149 145 142 143 140 133 124 118 114 111 111 107
225 227 233 238 235 221 206 215 213 209 195 203 203 194 184 186 189 193 185 192 199 197 191 201 202 213 195 213 219 230 223 231 238 194 194 184 185 186 198 179 205 200 211 207 189 168 187 193 183 173 159 162 151 144 139 143 144 129 121 115 124 131 131 121 119 137 144 155 147 140 137 138 142 142 140 142 143 137 131 123 119 119 115 112 109
231 232 232 230 231 225 210 205 207 209 205 199 189 179 185 197 192 183 191 196 206 209 210 210 209 216 216 217 221 216 211 219 202 176 217 173 188 195 189 183 191 205 191 209 193 180 192 185 186 184 166 172 155 165 136 149 147 147 123 125 126 123 118 114 117 127 141 138 147 143 142 142 144 147 145 148 146 137 127 126 128 129 125 114 109
237 234 226 224 230 228 222 205 200 207 208 201 188 184 186 195 178 186 212 206 204 205 210 208 214 229 223 225 216 199 210 219 213 197 199 195 202 177 189 191 190 175 202 196 197 186 192 183 194 185 169 178 165 152 161 140 125 103 122 135 130 128 123 124 127 131 131 134 143 146 147 149 146 145 152 152 147 142 140 140 140 133 126 119 113
219 230 229 220 220 218 224 214 202 199 205 207 196 184 186 190 189 190 200 204 206 208 211 210 210 220 221 219 225 217 228 251 299 244 234 250 241 166 194 186 193 184 187 184 194 189 193 185 195 181 176 177 165 161 140 155 113 124 149 138 138 135 135 136 136 130 130 139 135 141 152 152 149 152 157 155 150 151 152 145 142 134 129 128 124
224 220 223 219 217 216 215 209 202 201 201 205 200 190 194 189 193 177 201 197 207 213 220 219 216 221 221 223 219 216 211 229 200 242 259 226 245 225 191 178 184 157 175 176 185 189 193 187 201 179 176 188 180 170 167 166 142 155 164 142 145 142 143 144 141 137 137 142 146 151 159 156 157 157 155 158 159 154 157 148 121 117 122 128 140
235 229 221 223 218 216 215 207 202 195 195 202 194 192 188 189 186 194 187 201 215 225 230 228 229 232 223 218 217 229 230 209 224 230 225 211 241 231 216 170 175 173 183 185 181 184 187 199 195 177 192 186 182 167 178 163 132 152 200 155 151 151 150 151 147 147 149 152 156 160 165 159 162 161 157 166 164 153 125 100 99 92 93 85 74
242 231 217 215 220 214 215 204 197 195 194 191 186 185 185 193 196 196 200 211 218 224 230 226 228 228 227 232 222 231 226 189 225 219 197 236 207 211 216 169 176 191 174 196 185 196 182 193 185 195 195 169 174 177 174 177 135 150 192 170 160 155 159 155 153 154 159 161 157 157 159 153 161 155 164 147 121 119 121 121 115 121 111 110 108
249 243 223 214 213 214 213 204 201 198 189 183 184 188 189 192 191 197 194 197 206 224 226 234 231 229 232 225 223 237 235 224 236 227 188 167 278 274 225 194 186 186 182 185 193 194 187 183 180 183 172 174 178 175 168 149 140 152 197 189 161 164 165 162 160 161 164 166 158 156 167 143 142 139 129 136 138 137 140 146 149 145 150 158 207
252 247 243 221 217 217 211 205 201 201 194 190 191 195 192 191 193 196 201 204 211 217 208 219 214 225 227 222 233 231 207 209 213 217 204 192 227 264 233 215 203 199 155 198 198 189 185 184 180 177 181 169 174 166 169 189 136 160 185 198 163 171 163 169 167 166 170 169 164 163 162 149 145 147 149 152 150 151 156 167 168 172 180 199 231
242 235 244 232 219 213 211 211 214 202 201 189 200 193 189 198 204 208 207 208 215 222 217 217 217 213 214 229 225 228 238 231 214 216 215 219 223 268 290 242 214 215 167 188 200 190 182 184 186 173 181 171 170 168 173 187 136 185 181 190 180 166 152 172 170 172 174 173 168 165 167 165 164 163 163 164 167 170 177 187 191 193 203 209 226
241 233 232 231 224 217 212 211 210 204 199 195 195 192 192 201 206 214 214 214 216 219 218 218 220 212 221 226 224 226 217 235 234 208 223 224 229 219 251 262 195 234 237 188 155 198 197 180 198 177 173 171 172 168 173 168 151 185 194 174 197 124 155 167 177 175 180 180 173 174 173 175 180 183 178 181 186 187 197 203 206 214 213 216 223
245 238 235 233 222 219 212 211 210 203 199 199 197 195 193 200 203 213 216 216 217 216 214 216 219 214 218 225 219 217 205 189 221 220 215 217 217 226 242 261 257 224 208 156 171 159 260 182 191 175 173 173 172 171 170 170 140 187 189 189 114 134 174 173 179 179 184 186 184 184 186 179 191 196 197 199 198 202 209 213 217 220 220 220 222
242 235 230 230 223 216 210 210 212 202 201 199 191 197 201 205 209 216 215 213 214 212 215 216 218 219 222 219 216 212 212 195 212 219 214 208 205 218 237 243 236 218 212 149 221 161 185 188 184 186 169 171 177 177 175 168 151 182 206 184 157 187 190 190 175 179 184 187 192 193 190 187 192 200 203 205 207 210 213 219 222 224 227 226 228
238 234 229 230 226 212 213 209 214 202 208 194 194 201 200 200 200 203 209 211 211 210 209 215 211 216 214 221 217 209 211 202 217 206 200 205 203 210 234 240 234 206 213 195 208 154 172 180 187 185 166 180 182 185 181 177 169 177 190 188 178 191 194 201 185 175 182 187 193 194 193 196 197 205 207 208 215 215 220 225 227 229 230 229 230
243 238 228 231 225 209 205 214 213 227 212 196 196 201 198 196 197 201 207 208 206 208 209 210 211 208 212 219 219 209 203 211 209 227 182 199 187 196 218 226 224 214 206 206 224 177 170 188 182 184 173 183 200 181 189 178 181 181 189 191 188 191 200 197 208 174 175 186 190 193 198 197 203 208 211 218 219 220 224 228 230 230 229 230 233
230 227 243 239 229 220 215 211 223 205 197 197 198 200 199 198 200 200 206 207 207 207 209 208 206 207 212 216 220 213 204 209 212 213 191 211 207 202 211 210 204 209 203 233 195 251 195 174 184 190 180 177 201 189 187 182 180 188 194 191 193 194 195 198 206 209 168 183 187 194 197 200 203 207 212 219 222 224 226 228 232 232 233 233 235
277 252 237 239 240 219 200 206 218 229 204 195 196 197 196 197 199 204 205 207 207 210 208 209 207 209 208 215 217 215 209 211 211 215 213 212 205 217 212 223 189 198 195 199 206 254 234 180 184 199 172 183 189 198 185 185 182 193 197 199 197 196 197 203 197 189 145 177 184 193 196 202 206 209 214 217 223 227 228 230 232 234 235 235 236
263 262 247 237 230 200 210 206 207 213 204 194 194 194 191 190 198 201 203 203 206 208 208 210 207 211 212 213 217 216 211 212 216 213 213 210 219 222 222 222 212 186 168 168 213 204 224 204 175 189 179 182 183 191 190 193 191 194 194 201 203 200 198 198 202 198 170 168 190 188 199 208 211 216 216 218 225 227 230 230 231 234 237 240 241
271 269 259 243 214 239 212 204 200 205 198 192 190 188 192 192 195 198 197 200 201 206 208 208 207 208 212 214 213 212 215 213 217 214 212 216 215 224 222 226 232 214 134 169 208 215 217 212 188 181 188 190 187 185 192 197 203 200 195 196 202 200 203 201 204 205 206 190 188 185 197 207 208 210 211 220 223 228 229 229 232 234 239 239 242
306 314 271 259 255 243 245 46 342 288 278 205 191 187 188 189 193 196 197 195 201 204 211 210 203 205 205 212 216 213 215 215 216 216 217 216 220 221 219 253 214 162 148 163 192 229 208 222 214 185 196 188 189 201 189 190 205 205 206 200 202 202 200 203 212 210 204 205 205 193 200 203 201 213 206 212 222 228 228 230 230 234 235 240 245
309 306 327 318 288 269 236 183 227 222 211 217 191 187 185 185 192 202 200 196 201 202 208 210 207 207 202 207 215 219 220 237 256 314 291 262 225 220 220 213 289 270 168 143 143 244 237 212 213 204 196 191 195 194 193 190 204 207 202 211 214 207 203 198 205 212 208 203 212 218 200 196 215 219 222 226 216 210 219 220 230 216 223 231 238
321 323 336 311 304 271 268 214 208 215 188 235 153 176 205 186 192 199 197 199 200 200 205 205 207 209 203 202 205 211 209 173 150 169 146 226 301 320 249 199 181 251 191 154 175 168 213 233 233 217 205 215 203 196 198 201 208 214 210 206 217 215 215 205 198 197 207 214 212 211 216 194 207 215 220 225 204 174 217 196 181 70 147 204 229
0 351 332 333 332 298 300 292 253 227 218 161 129 183 182 262 234 194 195 199 200 200 199 204 208 205 207 202 200 177 178 183 180 175 206 213 216 235 60 59 66 193 154 175 155 169 206 224 221 215 199 217 223 205 205 206 207 212 215 204 213 215 213 210 206 174 186 204 213 229 217 205 203 225 232 229 203 178 183 84 79 74 62 64 55
357 2 10 359 358 342 335 304 315 297 328 31 15 44 263 270 266 236 199 203 199 204 206 203 208 206 205 202 199 196 205 207 211 194 192 179 106 95 89 88 86 72 102 190 177 193 210 213 211 213 210 212 218 217 213 211 205 209 218 212 213 217 209 213 222 212 145 189 206 213 221 167 210 255 261 255 169 146 72 85 91 92 80 57 33
1 7 10 8 358 353 344 347 353 3 29 27 7 349 337 315 300 297 233 208 210 207 208 208 208 203 200 198 204 196 188 176 205 195 193 156 97 107 119 106 76 70 75 68 357 212 209 223 221 216 215 215 220 219 222 218 204 208 210 214 209 214 213 218 224 184 122 159 201 210 233 199 185 218 233 152 173 102 136 125 105 99 92 71 57
11 12 9 11 4 357 354 350 356 11 39 17 8 352 334 320 297 296 264 233 219 215 216 210 204 201 195 192 200 196 179 175 200 197 187 179 170 152 165 193 150 119 105 100 246 261 301 241 222 211 187 2 169 7 311 182 179 203 205 212 204 208 213 216 72 89 110 156 234 229 225 183 176 226 215 147 172 121 82 121 124 110 110 125 125
11 10 7 6 8 8 8 0 358 6 51 18 4 352 341 318 297 285 270 256 231 226 221 214 207 201 194 197 198 195 193 195 200 196 188 179 180 176 178 162 131 118 85 85 229 231 232 287 358 39 29 32 54 86 149 166 206 227 225 214 186 173 124 109 122 104 104 82 160 234 236 208 149 206 242 283 43 340 121 125 125 141 145 149 158
12 9 12 9 6 9 9 13 12 2 12 17 358 353 345 324 299 265 254 251 239 233 225 216 211 201 201 198 201 195 187 198 154 177 205 181 177 171 156 126 107 86 65 35 14 37 58 79 102 123 90 69 61 58 24 12 147 131 116 113 121 137 157 177 166 159 131 71 20 301 248 22 40 334 0 349 171 212 214 134 158 150 153 154 157
13 11 7 7 6 8 11 12 5 3 0 7 1 356 348 342 283 254 251 251 247 233 228 220 210 196 185 215 212 200 182 184 135 160 149 167 163 151 137 127 115 105 94 72 58 72 82 86 90 91 90 78 68 57 43 26 16 322 189 178 184 185 191 190 162 164 136 87 46 8 6 258 117 65 280 247 240 259 257 202 151 147 145 157 151
20 20 14 14 12 12 10 13 8 357 359 4 3 1 358 349 329 283 271 250 240 222 202 211 218 192 63 35 0 248 188 131 140 144 161 178 164 152 143 135 129 119 115 112 103 85 88 89 87 86 83 82 69 59 48 33 20 4 253 173 117 202 187 197 170 161 123 115 72 46 52 252 184 205 223 255 253 237 223 174 22 155 161 160 130
26 24 24 24 20 18 14 15 16 13 2 1 3 354 6 358 350 310 293 262 224 187 172 159 151 142 114 50 28 2 79 124 141 152 167 241 166 156 150 142 133 130 131 136 125 121 120 116 107 96 73 67 74 76 60 50 29 19 35 53 47 66 86 81 94 119 155 132 57 334 270 253 137 306 343 294 274 232 168 341 280 344 342 326 337